Location: Siloam Springs
(36.1881°N, 94.5403°W)
Time: 15:14:57
(UTC-05:00)

RS-15 - Pass Details

Date: 31 May 2024
Orbit: 1896 x 2148 km, 64.8° (Epoch: 19 June)

Event Time Altitude Azimuth Distance (km) Brightness Sun altitude
Rises 01:58:52 0° 316° (NW) 5,315 10.8 -30.9°
Reaches altitude 10° 02:03:17 10° 302° (WNW) 4,295 10.0 -30.7°
Maximum altitude 02:10:28 21° 259° (W) 3,488 9.1 -30.4°
Enters shadow 02:11:06 21° 255° (WSW) 3,494 9.1 -30.4°
